When you browse on this site, cookies collect data to enhance your experience and personalize the content and advertising you see.
Visit our Privacy Policy to learn more. By continuing to use the site, you agree to this use of cookies and data.
  • en France
  • Liste des pays
  • À 7 jours
  • Température de l'eau
  • Carte satellitaire
  • Carte météo
  • Widgets météo
  • user-avatar
    Se connecter

    Météo par heure à Linz

    Ce jour, 26 Juin, Mercredi

    Heure Température Précipitation Vent Pression Humidité
    00:00 +22°C° 0 mm 1 m/s 740 mmHg 87%
    01:00 +21°C° 0 mm 1 m/s 740 mmHg 88%
    02:00 +21°C° 0 mm 1 m/s 740 mmHg 88%
    03:00 +21°C° 0 mm 1 m/s 739 mmHg 89%
    04:00 +20°C° 0 mm 1 m/s 739 mmHg 89%
    05:00 +22°C° 0 mm 1 m/s 739 mmHg 86%
    06:00 +23°C° 0 mm 1 m/s 740 mmHg 82%
    07:00 +23°C° 0 mm 0 m/s 740 mmHg 78%
    08:00 +25°C° 0 mm 0 m/s 740 mmHg 74%
    09:00 +26°C° 0 mm 0 m/s 740 mmHg 70%
    10:00 +28°C° 0 mm 0 m/s 740 mmHg 65%
    11:00 +31°C° 0 mm 1 m/s 740 mmHg 62%
    12:00 +32°C° 0 mm 1 m/s 740 mmHg 59%
    13:00 +33°C° 0 mm 1 m/s 740 mmHg 55%
    14:00 +33°C° 0 mm 1 m/s 740 mmHg 55%
    15:00 +34°C° 0 mm 1 m/s 739 mmHg 54%
    16:00 +34°C° 0 mm 1 m/s 739 mmHg 54%
    17:00 +32°C° 0 mm 1 m/s 739 mmHg 60%
    18:00 +31°C° 0 mm 1 m/s 739 mmHg 66%
    19:00 +30°C° 0 mm 1 m/s 739 mmHg 72%
    20:00 +28°C° 0 mm 1 m/s 739 mmHg 73%
    21:00 +27°C° 0 mm 1 m/s 739 mmHg 75%
    22:00 +26°C° 0 mm 1 m/s 739 mmHg 77%
    23:00 +25°C° 0 mm 1 m/s 739 mmHg 78%

    Demain, 27 Juin, Jeudi

    Heure Température Précipitation Vent Pression Humidité
    00:00 +25°C° 0 mm 1 m/s 739 mmHg 79%
    01:00 +24°C° 0 mm 1 m/s 739 mmHg 80%
    02:00 +24°C° 0 mm 1 m/s 739 mmHg 81%
    03:00 +23°C° 0 mm 1 m/s 739 mmHg 82%
    04:00 +23°C° 0 mm 1 m/s 738 mmHg 83%
    05:00 +24°C° 0 mm 1 m/s 738 mmHg 80%
    06:00 +25°C° 0 mm 1 m/s 738 mmHg 78%
    07:00 +26°C° 0 mm 1 m/s 738 mmHg 76%
    08:00 +28°C° 0 mm 2 m/s 738 mmHg 73%
    09:00 +29°C° 0 mm 2 m/s 738 mmHg 70%
    10:00 +30°C° 0 mm 3 m/s 739 mmHg 67%
    11:00 +30°C° 0.9 mm 3 m/s 738 mmHg 67%
    12:00 +31°C° 0.9 mm 3 m/s 738 mmHg 68%
    13:00 +32°C° 0.9 mm 4 m/s 738 mmHg 68%
    14:00 +32°C° 1.3 mm 4 m/s 738 mmHg 71%
    15:00 +30°C° 1.3 mm 3 m/s 738 mmHg 73%
    16:00 +30°C° 1.3 mm 3 m/s 737 mmHg 76%
    17:00 +29°C° 0.8 mm 3 m/s 737 mmHg 77%
    18:00 +27°C° 0.8 mm 2 m/s 737 mmHg 79%
    19:00 +26°C° 0.8 mm 2 m/s 737 mmHg 80%
    20:00 +24°C° 0 mm 2 m/s 738 mmHg 78%
    21:00 +21°C° 0 mm 1 m/s 738 mmHg 76%
    22:00 +19°C° 0 mm 1 m/s 738 mmHg 73%
    23:00 +18°C° 0 mm 1 m/s 738 mmHg 74%

    Après-demain, 28 Juin, Vendredi

    Heure Température Précipitation Vent Pression Humidité
    00:00 +16°C° 0 mm 1 m/s 738 mmHg 74%
    01:00 +15°C° 0 mm 1 m/s 738 mmHg 75%
    02:00 +15°C° 0 mm 1 m/s 738 mmHg 78%
    03:00 +14°C° 0 mm 1 m/s 738 mmHg 80%
    04:00 +14°C° 0 mm 1 m/s 738 mmHg 83%
    05:00 +15°C° 0 mm 1 m/s 738 mmHg 81%
    06:00 +18°C° 0 mm 1 m/s 738 mmHg 79%
    07:00 +19°C° 0 mm 1 m/s 738 mmHg 76%
    08:00 +20°C° 0 mm 1 m/s 738 mmHg 72%
    09:00 +22°C° 0 mm 1 m/s 738 mmHg 67%
    10:00 +23°C° 0 mm 1 m/s 738 mmHg 62%
    11:00 +24°C° 0 mm 1 m/s 738 mmHg 60%
    12:00 +25°C° 0 mm 1 m/s 737 mmHg 57%
    13:00 +26°C° 0 mm 1 m/s 737 mmHg 55%
    14:00 +26°C° 0 mm 1 m/s 737 mmHg 54%
    15:00 +26°C° 0 mm 1 m/s 737 mmHg 53%
    16:00 +27°C° 0 mm 1 m/s 737 mmHg 53%
    17:00 +26°C° 0 mm 1 m/s 737 mmHg 59%
    18:00 +24°C° 0 mm 1 m/s 737 mmHg 64%
    19:00 +23°C° 0 mm 1 m/s 737 mmHg 70%
    20:00 +22°C° 0 mm 1 m/s 737 mmHg 73%
    21:00 +20°C° 0 mm 1 m/s 738 mmHg 76%
    22:00 +17°C° 0 mm 2 m/s 738 mmHg 78%
    23:00 +16°C° 0 mm 2 m/s 738 mmHg 80%

    29 Juin, Samedi

    Heure Température Précipitation Vent Pression Humidité
    00:00 +16°C° 0 mm 1 m/s 738 mmHg 82%
    01:00 +15°C° 0 mm 1 m/s 738 mmHg 84%
    02:00 +15°C° 0 mm 1 m/s 738 mmHg 86%
    03:00 +14°C° 0 mm 1 m/s 737 mmHg 87%
    04:00 +14°C° 0 mm 1 m/s 737 mmHg 89%
    05:00 +15°C° 0 mm 1 m/s 737 mmHg 85%
    06:00 +17°C° 0 mm 2 m/s 737 mmHg 81%
    07:00 +18°C° 0 mm 2 m/s 737 mmHg 77%
    08:00 +20°C° 0 mm 2 m/s 737 mmHg 73%
    09:00 +22°C° 0 mm 3 m/s 737 mmHg 68%
    10:00 +24°C° 0 mm 3 m/s 737 mmHg 63%
    11:00 +25°C° 0 mm 4 m/s 737 mmHg 60%
    12:00 +26°C° 0 mm 4 m/s 737 mmHg 57%
    13:00 +27°C° 0 mm 5 m/s 736 mmHg 54%
    14:00 +27°C° 0 mm 4 m/s 736 mmHg 55%
    15:00 +27°C° 0 mm 4 m/s 736 mmHg 56%
    16:00 +27°C° 0 mm 4 m/s 736 mmHg 57%
    17:00 +25°C° 0 mm 4 m/s 736 mmHg 61%
    18:00 +22°C° 0 mm 4 m/s 736 mmHg 66%
    19:00 +21°C° 0 mm 3 m/s 736 mmHg 71%
    20:00 +19°C° 0 mm 3 m/s 736 mmHg 72%
    21:00 +18°C° 0 mm 3 m/s 736 mmHg 73%
    22:00 +17°C° 0 mm 2 m/s 737 mmHg 75%
    23:00 +16°C° 0 mm 2 m/s 736 mmHg 77%

    30 Juin, Dimanche

    Heure Température Précipitation Vent Pression Humidité
    00:00 +16°C° 0 mm 2 m/s 736 mmHg 79%
    01:00 +15°C° 0 mm 2 m/s 736 mmHg 80%
    02:00 +15°C° 0 mm 1 m/s 736 mmHg 81%
    03:00 +15°C° 0 mm 1 m/s 736 mmHg 82%
    04:00 +14°C° 0 mm 1 m/s 736 mmHg 83%
    05:00 +16°C° 0 mm 1 m/s 736 mmHg 80%
    06:00 +18°C° 0 mm 1 m/s 736 mmHg 78%
    07:00 +20°C° 0 mm 1 m/s 736 mmHg 76%
    08:00 +22°C° 0 mm 1 m/s 736 mmHg 72%
    09:00 +24°C° 0 mm 1 m/s 736 mmHg 68%
    10:00 +26°C° 0 mm 1 m/s 736 mmHg 64%
    11:00 +27°C° 0 mm 1 m/s 736 mmHg 62%
    12:00 +29°C° 0 mm 1 m/s 736 mmHg 59%
    13:00 +30°C° 0 mm 1 m/s 736 mmHg 57%
    14:00 +31°C° 0 mm 1 m/s 735 mmHg 56%
    15:00 +31°C° 0 mm 1 m/s 735 mmHg 55%
    16:00 +32°C° 0 mm 1 m/s 735 mmHg 54%
    17:00 +31°C° 0 mm 1 m/s 735 mmHg 61%
    18:00 +29°C° 0 mm 1 m/s 735 mmHg 67%
    19:00 +28°C° 0 mm 1 m/s 735 mmHg 74%
    20:00 +26°C° 0 mm 1 m/s 736 mmHg 77%
    21:00 +25°C° 0 mm 1 m/s 736 mmHg 79%
    22:00 +23°C° 0 mm 1 m/s 736 mmHg 82%
    23:00 +23°C° 0 mm 1 m/s 736 mmHg 83%

    1 Juillet, Lundi

    Heure Température Précipitation Vent Pression Humidité
    00:00 +22°C° 0 mm 1 m/s 736 mmHg 84%
    01:00 +22°C° 0 mm 1 m/s 736 mmHg 85%
    02:00 +21°C° 0 mm 1 m/s 735 mmHg 86%
    03:00 +21°C° 0 mm 1 m/s 735 mmHg 86%
    04:00 +18°C° 0 mm 0 m/s 735 mmHg 87%
    05:00 +20°C° 0 mm 0 m/s 735 mmHg 84%
    06:00 +23°C° 0 mm 1 m/s 735 mmHg 81%
    07:00 +25°C° 0 mm 1 m/s 735 mmHg 79%
    08:00 +27°C° 0 mm 1 m/s 735 mmHg 73%
    09:00 +28°C° 0 mm 1 m/s 735 mmHg 68%
    10:00 +28°C° 0 mm 0 m/s 734 mmHg 63%
    11:00 +31°C° 0 mm 1 m/s 734 mmHg 59%
    12:00 +32°C° 0 mm 1 m/s 734 mmHg 54%
    13:00 +34°C° 0 mm 2 m/s 734 mmHg 50%
    14:00 +34°C° 0 mm 2 m/s 733 mmHg 51%
    15:00 +35°C° 0 mm 3 m/s 733 mmHg 53%
    16:00 +35°C° 0 mm 3 m/s 733 mmHg 54%
    17:00 +31°C° 0.3 mm 3 m/s 733 mmHg 61%
    18:00 +29°C° 0.3 mm 2 m/s 733 mmHg 67%
    19:00 +26°C° 0.3 mm 2 m/s 734 mmHg 74%
    20:00 +25°C° 0.3 mm 2 m/s 734 mmHg 78%
    21:00 +24°C° 0.3 mm 2 m/s 734 mmHg 82%
    22:00 +21°C° 0.3 mm 2 m/s 735 mmHg 87%
    23:00 +20°C° 0.1 mm 2 m/s 734 mmHg 89%
    Voir plus